FW6795 Weather Reports


time (UTC)temp
C
wind
direction
speed
KPH
gust
KPH
rain 1hr
cm
rain 24hr
cm
rain mn
cm
humidity
%
barometer
mb
20260510190549 22 190 8.0 16.1 0.00 0.00 0.00 48 1016.7
20260510185548 21 190 9.7 20.9 0.00 0.00 0.00 51 1016.9
20260510185048 22 190 8.0 17.7 0.00 0.00 0.00 51 1016.9
20260510184555 22 190 4.8 17.7 0.00 0.00 0.00 51 1016.9
20260510184047 21 190 6.4 17.7 0.00 0.00 0.00 51 1016.9
20260510183548 21 190 6.4 16.1 0.00 0.00 0.00 51 1017.0
20260510183053 21 190 9.7 20.9 0.00 0.00 0.00 51 1016.9
20260510182548 22 190 12.9 22.5 0.00 0.00 0.00 49 1016.9
20260510182048 22 190 14.5 22.5 0.00 0.00 0.00 48 1016.9
20260510181551 22 190 8.0 14.5 0.00 0.00 0.00 51 1016.9
20260510181050 21 190 8.0 24.1 0.00 0.00 0.00 51 1017.1
20260510180548 22 190 12.9 24.1 0.00 0.00 0.00 50 1017.1
20260510180103 22 190 6.4 14.5 0.00 0.00 0.00 50 1017.1
20260510175549 22 0 4.8 11.3 0.00 0.00 0.00 50 1017.0
20260510175048 21 190 3.2 11.3 0.00 0.00 0.00 54 1017.0
20260510174547 21 190 4.8 25.7 0.00 0.00 0.00 54 1017.2
20260510174048 21 190 14.5 25.7 0.00 0.00 0.00 52 1017.2
20260510173548 22 190 4.8 27.4 0.00 0.00 0.00 52 1017.1
20260510173052 21 190 0.0 27.4 0.00 0.00 0.00 52 1017.2
20260510172551 21 190 11.3 27.4 0.00 0.00 0.00 52 1017.3
20260510172048 21 190 9.7 22.5 0.00 0.00 0.00 53 1017.4
20260510171602 21 190 9.7 22.5 0.00 0.00 0.00 50 1017.4
20260510171050 21 190 3.2 19.3 0.00 0.00 0.00 52 1017.3
20260510170547 21 190 6.4 19.3 0.00 0.00 0.00 50 1017.4
20260510170050 22 190 6.4 19.3 0.00 0.00 0.00 50 1017.6
20260510165548 22 190 1.6 12.9 0.00 0.00 0.00 53 1017.4
20260510165048 21 190 4.8 22.5 0.00 0.00 0.00 49 1017.5
20260510164608 21 190 8.0 22.5 0.00 0.00 0.00 54 1017.5
20260510164048 21 190 8.0 19.3 0.00 0.00 0.00 49 1017.5
20260510163548 21 190 9.7 19.3 0.00 0.00 0.00 49 1017.6
20260510163137 21 190 8.0 14.5 0.00 0.00 0.00 52 1017.5
20260510162547 20 190 9.7 17.7 0.00 0.00 0.00 50 1017.7
20260510162047 20 190 6.4 17.7 0.00 0.00 0.00 52 1017.6
20260510161552 20 190 8.0 17.7 0.00 0.00 0.00 52 1017.5
20260510161048 20 190 4.8 16.1 0.00 0.00 0.00 53 1017.5
20260510160547 20 190 4.8 14.5 0.00 0.00 0.00 53 1017.5
20260510160056 20 190 4.8 19.3 0.00 0.00 0.00 53 1017.7
20260510155547 20 190 11.3 22.5 0.00 0.00 0.00 53 1017.6
20260510155047 20 190 8.0 22.5 0.00 0.00 0.00 51 1017.6
20260510154553 20 190 4.8 17.7 0.00 0.00 0.00 54 1017.5
20260510154048 20 190 6.4 20.9 0.00 0.00 0.00 57 1017.5
20260510153547 20 190 8.0 22.5 0.00 0.00 0.00 54 1017.6
20260510153101 20 190 9.7 22.5 0.00 0.00 0.00 55 1017.6
20260510152548 20 190 12.9 24.1 0.00 0.00 0.00 56 1017.6
20260510152048 19 190 11.3 24.1 0.00 0.00 0.00 55 1017.6
20260510151609 19 190 14.5 24.1 0.00 0.00 0.00 58 1017.6
20260510151047 19 190 9.7 17.7 0.00 0.00 0.00 57 1017.7
20260510150548 19 190 6.4 20.9 0.00 0.00 0.00 58 1017.6
20260510150058 19 190 8.0 27.4 0.00 0.00 0.00 59 1017.6
20260510145548 19 190 12.9 27.4 0.00 0.00 0.00 59 1017.6
20260510145048 19 190 9.7 19.3 0.00 0.00 0.00 61 1017.5
20260510144601 18 190 6.4 19.3 0.00 0.00 0.00 62 1017.5
20260510144048 18 190 11.3 22.5 0.00 0.00 0.00 61 1017.5
20260510143547 18 190 11.3 22.5 0.00 0.00 0.00 61 1017.4
20260510143103 18 190 11.3 20.9 0.00 0.00 0.00 64 1017.4
20260510142548 18 190 8.0 19.3 0.00 0.00 0.00 63 1017.4
20260510142047 18 190 6.4 19.3 0.00 0.00 0.00 66 1017.4
20260510141555 17 190 11.3 17.7 0.00 0.00 0.00 64 1017.5
20260510141047 17 190 9.7 16.1 0.00 0.00 0.00 66 1017.5
20260510140550 17 190 9.7 14.5 0.00 0.00 0.00 65 1017.5
20260510140053 17 190 8.0 14.5 0.00 0.00 0.00 66 1017.6
20260510135549 17 190 8.0 14.5 0.00 0.00 0.00 67 1017.7
20260510135051 17 190 6.4 14.5 0.00 0.00 0.00 67 1017.7
20260510134557 16 190 6.4 14.5 0.00 0.00 0.00 69 1017.7
20260510134053 16 190 6.4 14.5 0.00 0.00 0.00 69 1017.7
20260510133550 16 190 6.4 11.3 0.00 0.00 0.00 71 1017.7
20260510133053 16 190 4.8 9.7 0.00 0.00 0.00 72 1017.7
20260510132550 16 190 4.8 9.7 0.00 0.00 0.00 71 1017.7
20260510132053 16 190 6.4 11.3 0.00 0.00 0.00 72 1017.7
20260510131555 15 190 4.8 11.3 0.00 0.00 0.00 75 1017.7
20260510131049 15 190 4.8 9.7 0.00 0.00 0.00 76 1017.6
20260510130554 15 190 4.8 8.0 0.00 0.00 0.00 77 1017.6
20260510130054 14 190 4.8 8.0 0.00 0.00 0.00 77 1017.5
20260510125550 14 190 3.2 8.0 0.00 0.00 0.00 78 1017.4
20260510125053 13 190 4.8 8.0 0.00 0.00 0.00 80 1017.5
20260510124558 13 190 4.8 8.0 0.00 0.00 0.00 81 1017.3
20260510124050 13 190 3.2 8.0 0.00 0.00 0.00 82 1017.3
20260510123550 13 190 3.2 8.0 0.00 0.00 0.00 84 1017.3
20260510123056 12 190 3.2 8.0 0.00 0.00 0.00 86 1017.2
20260510122550 12 190 3.2 8.0 0.00 0.00 0.00 87 1017.1
20260510122049 11 190 4.8 6.4 0.00 0.00 0.00 88 1017.1
20260510121551 11 190 4.8 6.4 0.00 0.00 0.00 90 1017.1
20260510121049 10 190 3.2 4.8 0.00 0.00 0.00 93 1017.1
20260510120548 10 190 1.6 4.8 0.00 0.00 0.00 93 1017.0
20260510115550 9 190 1.6 4.8 0.00 0.00 0.00 94 1016.8
20260510115051 8 190 3.2 4.8 0.00 0.00 0.00 95 1016.7
20260510114552 8 190 3.2 4.8 0.00 0.00 0.00 95 1016.6
20260510114048 8 190 3.2 4.8 0.00 0.00 0.00 95 1016.5
20260510113549 8 190 3.2 4.8 0.00 0.00 0.00 95 1016.4
20260510113051 8 190 3.2 4.8 0.00 0.00 0.00 96 1016.2
20260510112550 8 190 0.0 3.2 0.00 0.00 0.00 95 1016.3
20260510112050 8 0 0.0 0.0 0.00 0.00 0.00 96 1016.2
20260510111551 8 0 0.0 0.0 0.00 0.00 0.00 97 1016.2
20260510111050 7 0 0.0 0.0 0.00 0.00 0.00 97 1016.2
20260510110549 7 0 0.0 0.0 0.00 0.00 0.00 96 1016.1
20260510110052 6 0 0.0 0.0 0.00 0.00 0.00 97 1016.0
20260510105549 6 0 0.0 0.0 0.00 0.00 0.00 97 1015.9
20260510105052 5 0 0.0 0.0 0.00 0.00 0.00 96 1015.9
20260510104553 5 0 0.0 0.0 0.00 0.00 0.00 96 1016.0
20260510104050 5 0 0.0 0.0 0.00 0.00 0.00 96 1015.9
20260510103550 5 0 0.0 3.2 0.00 0.00 0.00 96 1016.0
20260510103053 5 0 0.0 3.2 0.00 0.00 0.00 96 1015.8
20260510102550 5 190 0.0 0.0 0.00 0.00 0.00 96 1015.8
20260510102050 5 0 0.0 0.0 0.00 0.00 0.00 96 1015.6
20260510101554 5 0 0.0 0.0 0.00 0.00 0.00 96 1015.6
20260510101049 5 0 0.0 0.0 0.00 0.00 0.00 96 1015.6
20260510100551 5 0 0.0 0.0 0.00 0.00 0.00 96 1015.5
20260510100108 5 0 0.0 0.0 0.00 0.00 0.00 96 1015.5
20260510095550 5 0 0.0 0.0 0.00 0.00 0.00 96 1015.5
20260510095052 6 0 0.0 0.0 0.00 0.00 0.00 96 1015.5
20260510094601 5 0 0.0 0.0 0.00 0.00 0.00 96 1015.4
20260510094049 5 0 0.0 0.0 0.00 0.00 0.00 96 1015.5
20260510093549 6 0 0.0 0.0 0.00 0.00 0.00 96 1015.4
20260510093058 6 0 0.0 0.0 0.00 0.00 0.00 96 1015.4
20260510092550 6 0 0.0 0.0 0.00 0.00 0.00 96 1015.3
20260510092049 6 0 0.0 0.0 0.00 0.00 0.00 96 1015.3
20260510091554 6 0 0.0 0.0 0.00 0.00 0.00 96 1015.2
20260510091050 6 0 0.0 0.0 0.00 0.00 0.00 96 1015.1
20260510090551 6 0 0.0 0.0 0.00 0.00 0.00 96 1015.1
20260510090058 6 0 0.0 0.0 0.00 0.00 0.00 96 1015.1
20260510085549 5 0 0.0 0.0 0.00 0.00 0.00 95 1015.0
20260510085049 6 0 0.0 0.0 0.00 0.00 0.00 95 1015.0
20260510084611 6 0 0.0 0.0 0.00 0.00 0.00 96 1014.9
20260510084052 6 0 0.0 0.0 0.00 0.00 0.00 96 1014.8
20260510083550 6 0 0.0 0.0 0.00 0.00 0.00 95 1014.8
20260510083053 6 0 0.0 0.0 0.00 0.00 0.00 96 1014.7
20260510082549 6 0 0.0 0.0 0.00 0.00 0.00 96 1014.6
20260510082049 6 0 0.0 0.0 0.00 0.00 0.00 96 1014.6
20260510081555 6 0 0.0 0.0 0.00 0.00 0.00 96 1014.6
20260510081049 6 0 0.0 0.0 0.00 0.00 0.00 95 1014.4
20260510080550 6 0 0.0 0.0 0.00 0.00 0.00 95 1014.4
20260510080051 6 0 0.0 0.0 0.00 0.00 0.00 95 1014.4
20260510075550 6 0 0.0 0.0 0.00 0.00 0.00 94 1014.3
20260510075049 6 0 0.0 0.0 0.00 0.00 0.00 94 1014.3
20260510074549 6 0 0.0 0.0 0.00 0.00 0.00 94 1014.2
20260510074049 7 0 0.0 0.0 0.00 0.00 0.00 94 1014.2
20260510073549 7 0 0.0 0.0 0.00 0.00 0.00 95 1014.1
20260510073103 7 0 0.0 0.0 0.00 0.00 0.00 95 1014.0
20260510072549 7 0 0.0 0.0 0.00 0.00 0.00 95 1014.1
20260510072052 7 0 0.0 0.0 0.00 0.00 0.00 95 1014.2
20260510071553 7 0 0.0 0.0 0.00 0.00 0.00 95 1014.2
20260510071048 7 0 0.0 0.0 0.00 0.00 0.00 95 1014.2
20260510070548 7 0 0.0 0.0 0.00 0.00 0.00 94 1014.2
20260510070055 7 0 0.0 0.0 0.00 0.00 0.00 94 1014.2
20260510065551 7 0 0.0 3.2 0.00 0.00 0.00 94 1014.1
20260510065050 7 0 0.0 3.2 0.00 0.00 0.00 94 1014.1
20260510064554 7 190 1.6 3.2 0.00 0.00 0.00 94 1014.1
20260510064049 7 190 1.6 3.2 0.00 0.00 0.00 94 1014.1
20260510063549 7 0 0.0 0.0 0.00 0.00 0.00 94 1014.0
20260510063053 7 0 0.0 0.0 0.00 0.00 0.00 94 1014.2
20260510062550 7 0 0.0 0.0 0.00 0.00 0.00 94 1014.2
20260510062049 7 0 0.0 0.0 0.00 0.00 0.00 93 1014.2
20260510061556 7 0 0.0 0.0 0.00 0.00 0.00 93 1014.1
20260510061051 8 0 0.0 0.0 0.00 0.00 0.00 93 1014.2
20260510060550 8 0 0.0 0.0 0.00 0.00 0.00 92 1014.3
20260510060055 8 0 0.0 0.0 0.00 0.00 0.00 93 1014.3
20260510055549 8 0 0.0 0.0 0.00 0.00 0.00 92 1014.3
20260510055052 8 0 0.0 0.0 0.00 0.00 0.00 92 1014.3
20260510054551 8 0 0.0 0.0 0.00 0.00 0.00 94 1014.3
20260510054048 8 0 0.0 0.0 0.00 0.00 0.00 94 1014.4
20260510053548 8 0 0.0 0.0 0.00 0.00 0.00 94 1014.5
20260510053100 8 0 0.0 0.0 0.00 0.00 0.00 94 1014.5
20260510052548 7 0 0.0 0.0 0.00 0.00 0.00 93 1014.5
20260510052052 7 0 0.0 0.0 0.00 0.00 0.00 92 1014.4
20260510051553 8 0 0.0 0.0 0.00 0.00 0.00 92 1014.3
20260510051049 8 0 0.0 0.0 0.00 0.00 0.00 92 1014.2
20260510050549 8 0 0.0 0.0 0.00 0.00 0.00 91 1014.2
20260510050056 8 0 0.0 0.0 0.00 0.00 0.00 91 1014.3
20260510045549 8 0 0.0 0.0 0.00 0.00 0.00 90 1014.2
20260510045049 8 0 0.0 0.0 0.00 0.00 0.00 91 1014.2
20260510044556 8 0 0.0 0.0 0.00 0.00 0.00 90 1014.2
20260510044049 8 0 0.0 0.0 0.00 0.00 0.00 89 1014.3
20260510043550 8 0 0.0 0.0 0.00 0.00 0.00 87 1014.4
20260510043102 9 0 0.0 0.0 0.00 0.00 0.00 87 1014.4
20260510042549 10 0 0.0 0.0 0.00 0.00 0.00 86 1014.3
20260510042048 10 0 0.0 0.0 0.00 0.00 0.00 87 1014.3
20260510041551 10 0 0.0 0.0 0.00 0.00 0.00 87 1014.5
20260510041049 10 0 0.0 0.0 0.00 0.00 0.00 87 1014.5
20260510040550 10 0 0.0 0.0 0.00 0.00 0.00 86 1014.4
20260510040100 10 0 0.0 0.0 0.00 0.00 0.00 84 1014.3
20260510035548 10 0 0.0 0.0 0.00 0.00 0.00 83 1014.3
20260510035048 11 0 0.0 0.0 0.00 0.00 0.00 82 1014.4
20260510034552 11 0 0.0 0.0 0.00 0.00 0.00 82 1014.3
20260510034050 11 0 0.0 0.0 0.00 0.00 0.00 83 1014.3
20260510033552 11 0 0.0 0.0 0.00 0.00 0.00 84 1014.2
20260510033115 11 0 0.0 0.0 0.00 0.00 0.00 83 1014.3
20260510032551 11 0 0.0 0.0 0.00 0.00 0.00 82 1014.3
20260510032049 11 0 0.0 0.0 0.00 0.00 0.00 82 1014.1
20260510031558 11 0 0.0 0.0 0.00 0.00 0.00 82 1014.2
20260510031048 11 0 0.0 0.0 0.00 0.00 0.00 82 1014.1
20260510030549 11 0 0.0 0.0 0.00 0.00 0.00 80 1014.1
20260510030059 11 0 0.0 0.0 0.00 0.00 0.00 82 1014.1
20260510025549 11 0 0.0 0.0 0.00 0.00 0.00 82 1014.0
20260510025049 11 0 0.0 0.0 0.00 0.00 0.00 81 1013.9
20260510024552 11 0 0.0 0.0 0.00 0.00 0.00 81 1013.9
20260510024052 11 0 0.0 0.0 0.00 0.00 0.00 81 1013.8
20260510023548 11 0 0.0 0.0 0.00 0.00 0.00 80 1013.8
20260510023049 12 0 0.0 0.0 0.00 0.00 0.00 79 1013.8
20260510022549 12 0 0.0 0.0 0.00 0.00 0.00 79 1013.8
20260510022051 12 0 0.0 0.0 0.00 0.00 0.00 80 1013.7
20260510021554 12 0 0.0 0.0 0.00 0.00 0.00 80 1013.6
20260510021048 12 0 0.0 0.0 0.00 0.00 0.00 79 1013.7
20260510020548 12 0 0.0 0.0 0.00 0.00 0.00 77 1013.6
20260510020056 12 0 0.0 0.0 0.00 0.00 0.00 76 1013.5
20260510015549 12 0 0.0 0.0 0.00 0.00 0.00 77 1013.4
20260510015049 13 0 0.0 0.0 0.00 0.00 0.00 76 1013.3
20260510014555 13 0 0.0 0.0 0.00 0.00 0.00 76 1013.3
20260510014050 13 0 0.0 0.0 0.00 0.00 0.00 75 1013.2
20260510013549 13 0 0.0 0.0 0.00 0.00 0.00 75 1013.1
20260510013055 13 0 0.0 0.0 0.00 0.00 0.00 74 1013.0
20260510012553 13 0 0.0 0.0 0.00 0.00 0.00 74 1012.9
20260510012050 13 0 0.0 0.0 0.00 0.00 0.00 74 1012.8
20260510011600 13 0 0.0 0.0 0.00 0.00 0.00 74 1012.9
20260510011048 13 0 0.0 0.0 0.00 0.00 0.00 73 1012.7
20260510010548 13 0 0.0 0.0 0.00 0.00 0.00 73 1012.5
20260510010059 13 0 0.0 1.6 0.00 0.00 0.00 72 1012.6
20260510005548 14 0 0.0 1.6 0.00 0.00 0.00 70 1012.5
20260510005049 14 190 0.0 0.0 0.00 0.00 0.00 70 1012.2
20260510004552 15 0 0.0 0.0 0.00 0.00 0.00 69 1012.0
20260510004049 15 0 0.0 0.0 0.00 0.00 0.00 69 1012.0
20260510003549 15 0 0.0 0.0 0.00 0.00 0.00 68 1012.1
20260510003053 15 0 0.0 0.0 0.00 0.00 0.00 67 1012.0
20260510002548 15 0 0.0 0.0 0.00 0.00 0.00 67 1012.2
20260510002049 16 0 0.0 0.0 0.00 0.00 0.00 66 1012.2
20260510001557 16 0 0.0 0.0 0.00 0.00 0.00 65 1012.1
20260510001051 16 0 0.0 0.0 0.00 0.00 0.00 65 1012.0
20260510000549 16 0 0.0 3.2 0.00 0.00 0.00 65 1012.1
20260510000106 16 0 0.0 3.2 0.00 0.00 0.00 63 1011.9
20260509235549 17 190 1.6 6.4 0.00 0.00 0.00 62 1011.9
20260509235048 17 0 0.0 6.4 0.00 0.00 0.00 61 1011.9
20260509234559 17 190 1.6 8.0 0.00 0.00 0.00 60 1012.0
20260509234049 18 190 3.2 8.0 0.00 0.00 0.00 59 1011.8
20260509233548 18 190 4.8 11.3 0.00 0.00 0.00 57 1011.6
20260509233052 18 190 3.2 12.9 0.00 0.00 0.00 57 1011.6
20260509232548 18 190 4.8 12.9 0.00 0.00 0.00 56 1011.5
20260509232049 18 190 3.2 9.7 0.00 0.00 0.00 56 1011.5
20260509231557 19 190 4.8 14.5 0.00 0.00 0.00 55 1011.4
20260509231049 19 190 6.4 14.5 0.00 0.00 0.00 54 1011.3
20260509230548 19 190 6.4 12.9 0.00 0.00 0.00 55 1011.2
20260509230053 18 190 3.2 12.9 0.00 0.00 0.00 56 1011.1
20260509225550 18 190 6.4 12.9 0.00 0.00 0.00 56 1011.2
20260509225048 18 190 4.8 12.9 0.00 0.00 0.00 56 1011.0
20260509224555 18 190 8.0 14.5 0.00 0.00 0.00 56 1011.0
20260509224049 18 190 6.4 14.5 0.00 0.00 0.00 56 1011.0
20260509223549 18 190 8.0 14.5 0.00 0.00 0.00 55 1010.9
20260509223100 19 190 4.8 14.5 0.00 0.00 0.00 55 1011.0
20260509222548 19 190 6.4 16.1 0.00 0.00 0.00 54 1011.2
20260509222049 19 190 4.8 16.1 0.00 0.00 0.00 55 1011.3
20260509221556 19 190 8.0 22.5 0.00 0.00 0.00 54 1011.2
20260509221049 19 190 11.3 22.5 0.00 0.00 0.00 54 1011.2
20260509220549 19 190 11.3 29.0 0.00 0.00 0.00 54 1011.2
20260509220057 19 190 14.5 29.0 0.00 0.00 0.00 53 1011.1
20260509215549 19 190 12.9 30.6 0.00 0.00 0.00 53 1011.0
20260509215049 19 190 14.5 30.6 0.00 0.00 0.00 52 1010.9
20260509214556 19 190 9.7 22.5 0.00 0.00 0.00 54 1010.9
20260509214048 19 190 12.9 22.5 0.00 0.00 0.00 54 1010.9
20260509213548 19 190 14.5 22.5 0.00 0.00 0.00 55 1010.8
20260509213055 18 190 8.0 16.1 0.00 0.00 0.00 61 1010.9
20260509212550 18 190 8.0 20.9 0.00 0.00 0.00 61 1010.8
20260509212049 18 190 11.3 20.9 0.00 0.00 0.00 60 1010.8
20260509211551 19 190 3.2 14.5 0.00 0.00 0.00 64 1010.8
20260509211048 18 190 8.0 17.7 0.00 0.00 0.00 62 1010.7
20260509210547 19 190 9.7 17.7 0.00 0.00 0.00 62 1010.8
20260509210059 19 190 9.7 16.1 0.00 0.00 0.00 61 1010.7
20260509205548 18 190 8.0 14.5 0.00 0.00 0.00 60 1010.5
20260509205051 18 190 6.4 14.5 0.00 0.00 0.00 60 1010.6
20260509204558 18 190 6.4 14.5 0.00 0.00 0.00 59 1010.7
20260509204049 18 190 9.7 14.5 0.00 0.00 0.00 61 1010.7
20260509203548 18 190 8.0 14.5 0.00 0.00 0.00 60 1010.6
20260509203050 18 190 6.4 14.5 0.00 0.00 0.00 59 1010.6
20260509202548 18 190 8.0 14.5 0.00 0.00 0.00 58 1010.7
20260509202049 18 190 9.7 12.9 0.00 0.00 0.00 59 1010.7
20260509201551 18 190 6.4 16.1 0.00 0.00 0.00 60 1010.5
20260509201048 18 190 8.0 16.1 0.00 0.00 0.00 59 1010.6
20260509200549 18 190 9.7 19.3 0.00 0.00 0.00 59 1010.7
20260509200105 19 190 12.9 19.3 0.00 0.00 0.00 56 1010.7
20260509195548 19 190 8.0 16.1 0.00 0.00 0.00 56 1010.6
20260509195048 19 190 4.8 11.3 0.00 0.00 0.00 61 1010.6
20260509194551 18 190 6.4 11.3 0.00 0.00 0.00 59 1010.7
20260509194048 18 190 6.4 11.3 0.00 0.00 0.00 60 1010.7
20260509193548 18 190 4.8 9.7 0.00 0.00 0.00 61 1010.6
20260509193051 18 190 4.8 9.7 0.00 0.00 0.00 59 1010.5
20260509192548 18 190 1.6 9.7 0.00 0.00 0.00 63 1010.6
20260509192049 18 190 4.8 9.7 0.00 0.00 0.00 62 1010.7
20260509191549 18 190 3.2 9.7 0.00 0.00 0.00 63 1010.7
20260509191048 18 190 4.8 14.5 0.00 0.00 0.00 62 1010.9